GW3011 Weather Reports


time (UTC)temp
C
wind
direction
speed
KPH
gust
KPH
rain 1hr
cm
rain 24hr
cm
rain mn
cm
humidity
%
barometer
mb
20260510160841 17 297 0.0 0.0 0.00 0.30 0.30 79 1012.6
20260510160338 17 256 3.2 3.2 0.00 0.30 0.30 79 1012.7
20260510155832 17 231 0.0 0.0 0.00 0.30 0.30 77 1012.7
20260510155330 17 206 4.8 9.7 0.00 0.30 0.30 79 1012.8
20260510154825 16 351 1.6 4.8 0.00 0.30 0.30 80 1012.8
20260510154322 16 296 0.0 0.0 0.00 0.30 0.30 81 1012.9
20260510153816 16 273 1.6 3.2 0.00 0.30 0.30 80 1013.0
20260510153312 17 268 4.8 6.4 0.00 0.30 0.30 79 1013.0
20260510152809 16 286 1.6 1.6 0.00 0.30 0.30 82 1013.0
20260510152307 16 311 0.0 0.0 0.00 0.30 0.30 84 1012.8
20260510151803 15 283 1.6 1.6 0.00 0.30 0.30 84 1012.8
20260510151300 15 313 1.6 1.6 0.00 0.30 0.30 85 1013.1
20260510150756 15 294 1.6 1.6 0.00 0.30 0.30 85 1012.8
20260510150252 15 311 0.0 0.0 0.00 0.30 0.30 85 1012.9
20260510145748 15 205 3.2 3.2 0.00 0.30 0.30 86 1013.0
20260510145245 15 323 1.6 1.6 0.00 0.30 0.30 88 1013.0
20260510144741 15 269 1.6 1.6 0.00 0.30 0.30 88 1012.8
20260510144238 14 320 0.0 1.6 0.00 0.30 0.30 90 1012.8
20260510143732 13 259 3.2 4.8 0.00 0.30 0.30 91 1012.8
20260510143229 14 305 1.6 3.2 0.00 0.30 0.30 91 1013.0
20260510142725 14 255 3.2 4.8 0.00 0.30 0.30 90 1013.0
20260510142222 14 307 3.2 4.8 0.00 0.30 0.30 91 1012.9
20260510141719 13 297 1.6 1.6 0.00 0.30 0.30 91 1012.8
20260510141218 13 306 0.0 0.0 0.00 0.30 0.30 91 1012.9
20260510140713 13 306 0.0 0.0 0.00 0.30 0.30 91 1012.7
20260510140208 13 294 1.6 1.6 0.00 0.30 0.30 91 1012.5
20260510135703 13 234 1.6 1.6 0.00 0.30 0.30 91 1012.6
20260510135159 13 169 1.6 1.6 0.00 0.30 0.30 91 1012.5
20260510134656 13 307 0.0 0.0 0.00 0.30 0.30 92 1012.3
20260510134153 13 65 4.8 4.8 0.00 0.30 0.30 92 1012.5
20260510133649 13 318 0.0 0.0 0.00 0.30 0.30 92 1012.8
20260510133145 13 304 0.0 0.0 0.00 0.30 0.30 93 1012.7
20260510132641 13 307 0.0 0.0 0.00 0.30 0.30 93 1012.7
20260510132139 12 298 0.0 0.0 0.00 0.30 0.30 93 1012.6
20260510131636 12 253 1.6 3.2 0.00 0.30 0.30 94 1012.5
20260510131134 12 354 0.0 0.0 0.00 0.30 0.30 95 1012.3
20260510130630 12 333 0.0 0.0 0.00 0.30 0.30 95 1012.1
20260510130127 12 349 1.6 1.6 0.00 0.30 0.30 95 1012.4
20260510125624 12 343 1.6 3.2 0.00 0.30 0.30 95 1012.1
20260510125120 12 354 1.6 1.6 0.00 0.30 0.30 95 1012.1
20260510124617 12 0 1.6 3.2 0.00 0.30 0.30 95 1012.1
20260510124114 12 307 0.0 0.0 0.00 0.30 0.30 95 1012.1
20260510123609 12 345 1.6 1.6 0.00 0.30 0.30 95 1012.1
20260510123105 12 238 1.6 1.6 0.00 0.30 0.30 95 1012.1
20260510122601 12 305 0.0 0.0 0.00 0.30 0.30 96 1012.2
20260510122057 12 161 1.6 3.2 0.00 0.30 0.30 96 1012.1
20260510121554 12 325 0.0 0.0 0.00 0.30 0.30 96 1011.7
20260510121051 12 342 0.0 0.0 0.00 0.30 0.30 97 1012.0
20260510120549 12 314 0.0 0.0 0.00 0.30 0.30 98 1011.9
20260510120044 11 314 0.0 1.6 0.00 0.30 0.30 98 1011.9
20260510115541 12 310 0.0 0.0 0.00 0.30 0.30 99 1011.6
20260510115038 11 324 0.0 0.0 0.00 0.30 0.30 99 1011.9
20260510114534 11 309 0.0 0.0 0.00 0.30 0.30 99 1011.7
20260510114030 11 315 0.0 0.0 0.00 0.30 0.30 99 1011.9
20260510113526 11 342 1.6 1.6 0.00 0.30 0.30 99 1011.6
20260510113024 11 331 3.2 4.8 0.00 0.30 0.30 99 1011.4
20260510112520 11 317 0.0 0.0 0.00 0.30 0.30 99 1011.4
20260510112016 11 307 0.0 0.0 0.00 0.30 0.30 99 1011.4
20260510111513 11 316 0.0 0.0 0.00 0.30 0.30 99 1011.2
20260510111009 11 328 0.0 0.0 0.00 0.30 0.30 99 1011.0
20260510110505 11 311 0.0 1.6 0.00 0.30 0.30 99 1011.0
20260510110002 11 307 1.6 3.2 0.00 0.30 0.30 99 1010.8
20260510105456 11 312 0.0 0.0 0.00 0.30 0.30 99 1010.9
20260510104952 11 312 0.0 0.0 0.00 0.30 0.30 99 1011.0
20260510104449 11 312 0.0 0.0 0.00 0.30 0.30 99 1011.2
20260510103945 11 317 0.0 0.0 0.00 0.30 0.30 99 1011.4
20260510103443 11 323 1.6 3.2 0.00 0.30 0.30 99 1011.1
20260510102938 11 313 0.0 3.2 0.00 0.30 0.30 99 1010.9
20260510102434 11 334 0.0 1.6 0.00 0.30 0.30 99 1010.8
20260510101931 11 326 4.8 6.4 0.00 0.30 0.30 99 1010.7
20260510101429 11 320 0.0 0.0 0.00 0.30 0.30 99 1011.1
20260510100927 11 327 1.6 3.2 0.00 0.30 0.30 99 1010.9
20260510100423 11 312 0.0 1.6 0.00 0.30 0.30 99 1010.8
20260510095919 11 305 0.0 0.0 0.00 0.30 0.30 99 1011.0
20260510095415 11 313 1.6 3.2 0.00 0.30 0.30 99 1010.9
20260510094914 11 299 1.6 1.6 0.00 0.30 0.30 99 1010.8
20260510094409 11 307 0.0 0.0 0.00 0.30 0.30 99 1011.0
20260510093905 11 314 0.0 1.6 0.00 0.30 0.30 99 1011.3
20260510093401 11 311 0.0 0.0 0.00 0.30 0.30 99 1011.4
20260510092858 11 311 1.6 3.2 0.00 0.30 0.30 99 1011.3
20260510092354 11 307 0.0 0.0 0.00 0.30 0.30 99 1011.5
20260510091849 11 307 0.0 0.0 0.00 0.30 0.30 99 1011.3
20260510091347 11 312 0.0 0.0 0.00 0.30 0.30 99 1011.6
20260510090843 11 307 0.0 1.6 0.00 0.30 0.30 99 1011.2
20260510090339 11 348 3.2 3.2 0.00 0.30 0.30 99 1011.2
20260510085835 11 308 0.0 1.6 0.00 0.30 0.30 99 1011.4
20260510085330 11 307 0.0 0.0 0.00 0.30 0.30 99 1011.3
20260510084826 11 301 1.6 1.6 0.00 0.30 0.30 99 1011.4
20260510084324 11 300 3.2 3.2 0.00 0.30 0.30 99 1011.1
20260510083820 11 307 0.0 0.0 0.00 0.30 0.30 99 1010.7
20260510083317 11 311 0.0 0.0 0.00 0.30 0.30 99 1011.0
20260510082812 11 313 1.6 1.6 0.00 0.30 0.30 99 1010.5
20260510082310 11 311 0.0 0.0 0.00 0.30 0.30 99 1010.6
20260510081809 11 317 0.0 0.0 0.00 0.30 0.30 99 1010.9
20260510081305 11 309 0.0 0.0 0.00 0.30 0.30 99 1010.5
20260510080801 11 309 0.0 0.0 0.00 0.30 0.30 99 1010.7
20260510080256 11 309 0.0 0.0 0.00 0.30 0.30 99 1010.5
20260510075753 11 315 1.6 1.6 0.00 0.30 0.30 99 1010.7
20260510075250 11 306 0.0 0.0 0.00 0.30 0.30 99 1010.5
20260510074747 11 310 0.0 0.0 0.00 0.30 0.30 99 1010.5
20260510074244 11 319 0.0 1.6 0.00 0.30 0.30 99 1010.4
20260510073740 11 322 3.2 4.8 0.00 0.30 0.30 99 1010.3
20260510073236 11 314 0.0 0.0 0.00 0.30 0.30 99 1010.4
20260510072732 11 312 0.0 0.0 0.00 0.30 0.30 99 1010.6
20260510072229 11 308 0.0 0.0 0.00 0.30 0.30 99 1010.4
20260510071725 11 314 0.0 0.0 0.00 0.30 0.30 99 1010.4
20260510071222 11 308 0.0 0.0 0.00 0.30 0.30 99 1010.5
20260510070720 11 313 0.0 0.0 0.00 0.30 0.30 99 1010.4
20260510070218 11 308 0.0 0.0 0.00 0.30 0.30 99 1010.6
20260510065712 11 309 0.0 0.0 0.00 0.30 0.30 99 1010.3
20260510065209 11 310 0.0 0.0 0.00 0.30 0.30 99 1010.1
20260510064705 11 311 0.0 0.0 0.00 0.30 0.30 99 1010.4
20260510064203 11 309 0.0 0.0 0.00 0.30 0.30 99 1010.2
20260510063700 11 316 0.0 0.0 0.00 0.30 0.30 99 1010.0
20260510063155 11 318 0.0 0.0 0.00 0.30 0.30 99 1009.8
20260510062652 11 312 0.0 0.0 0.00 0.30 0.30 99 1010.2
20260510062148 11 311 0.0 0.0 0.00 0.30 0.30 99 1010.0
20260510061643 11 323 0.0 0.0 0.00 0.30 0.30 99 1010.1
20260510061141 11 309 0.0 0.0 0.00 0.30 0.30 99 1010.3
20260510060637 11 330 0.0 0.0 0.00 0.30 0.30 99 1010.2
20260510060134 11 310 0.0 0.0 0.00 0.30 0.30 99 1010.5
20260510055630 11 313 0.0 0.0 0.00 0.30 0.30 99 1010.2
20260510055129 11 312 0.0 0.0 0.00 0.30 0.30 99 1010.3
20260510054624 11 317 0.0 0.0 0.00 0.30 0.30 99 1010.4
20260510054119 11 315 0.0 1.6 0.00 0.30 0.30 99 1010.4
20260510053619 11 313 0.0 0.0 0.00 0.30 0.30 99 1010.2
20260510053116 11 325 1.6 1.6 0.00 0.30 0.30 99 1010.3
20260510052611 11 308 0.0 0.0 0.00 0.30 0.30 99 1010.2
20260510052108 11 315 0.0 0.0 0.00 0.30 0.30 99 1010.5
20260510051603 11 311 0.0 0.0 0.00 0.30 0.30 99 1010.4
20260510051101 11 310 0.0 0.0 0.00 0.30 0.30 99 1010.4
20260510050558 11 312 0.0 0.0 0.00 0.30 0.30 99 1010.6
20260510050055 11 307 0.0 0.0 0.00 0.30 0.30 99 1010.6
20260510045552 11 311 0.0 0.0 0.00 0.30 0.30 99 1010.5
20260510045048 11 312 0.0 0.0 0.00 0.30 0.30 99 1010.4
20260510044545 11 309 0.0 0.0 0.00 0.30 0.30 99 1010.7
20260510044042 11 303 0.0 0.0 0.00 0.30 0.30 99 1010.8
20260510043537 11 308 0.0 0.0 0.00 0.30 0.30 99 1010.8
20260510043033 11 312 0.0 0.0 0.00 0.30 0.30 99 1010.6
20260510042533 11 330 0.0 0.0 0.00 0.30 0.30 99 1010.3
20260510042028 11 312 0.0 0.0 0.00 0.30 0.30 99 1010.5
20260510041526 11 311 0.0 0.0 0.00 0.30 0.30 99 1010.4
20260510041023 11 313 1.6 1.6 0.00 0.30 0.30 99 1010.5
20260510040520 11 353 1.6 3.2 0.00 0.30 0.30 99 1010.2
20260510040015 11 339 3.2 3.2 0.00 0.30 0.30 99 1010.5
20260510035512 11 318 0.0 1.6 0.00 0.30 0.30 99 1010.2
20260510035011 11 331 0.0 0.0 0.00 0.30 0.30 99 1010.4
20260510034510 11 309 0.0 0.0 0.00 0.30 0.30 99 1010.2
20260510034006 11 311 0.0 0.0 0.00 0.30 0.30 99 1010.2
20260510033502 11 312 0.0 0.0 0.00 0.30 0.30 99 1010.3
20260510033000 11 308 0.0 0.0 0.00 0.30 0.30 99 1010.1
20260510032456 11 298 0.0 0.0 0.00 0.30 0.30 99 1010.2
20260510031951 11 5 1.6 3.2 0.00 0.30 0.30 99 1010.2
20260510031447 11 311 0.0 0.0 0.00 0.30 0.30 99 1010.0
20260510030943 11 307 0.0 0.0 0.00 0.30 0.30 99 1010.1
20260510030438 11 312 0.0 0.0 0.00 0.30 0.30 99 1009.9
20260510025936 12 342 0.0 1.6 0.00 0.30 0.30 99 1010.2
20260510025433 12 315 1.6 1.6 0.00 0.30 0.30 98 1010.2
20260510024931 12 317 0.0 0.0 0.00 0.30 0.30 98 1010.1
20260510024427 12 306 0.0 0.0 0.00 0.30 0.30 98 1010.2
20260510023923 12 309 0.0 0.0 0.00 0.30 0.30 98 1010.2
20260510023419 12 315 1.6 1.6 0.00 0.30 0.30 98 1010.2
20260510022917 12 349 1.6 3.2 0.00 0.30 0.30 98 1010.1
20260510022415 12 308 0.0 0.0 0.00 0.30 0.30 98 1010.5
20260510021915 12 308 0.0 0.0 0.00 0.30 0.30 98 1010.5
20260510021413 12 317 0.0 0.0 0.00 0.30 0.30 98 1010.0
20260510020909 12 314 0.0 0.0 0.00 0.30 0.30 98 1010.2
20260510020404 12 312 0.0 0.0 0.00 0.30 0.30 98 1010.1
20260510015900 12 314 0.0 0.0 0.00 0.30 0.30 98 1010.4
20260510015356 12 312 0.0 0.0 0.00 0.30 0.30 98 1010.3
20260510014851 12 313 0.0 0.0 0.00 0.30 0.30 97 1010.3
20260510014349 12 314 0.0 0.0 0.00 0.30 0.30 97 1010.0
20260510013845 12 313 0.0 0.0 0.00 0.30 0.30 97 1010.0
20260510013341 12 310 0.0 0.0 0.00 0.30 0.30 97 1010.2
20260510012836 12 312 0.0 0.0 0.00 0.30 0.30 97 1010.0
20260510012335 12 311 0.0 0.0 0.00 0.30 0.30 97 1010.1
20260510011831 12 339 0.0 0.0 0.00 0.30 0.30 97 1010.2
20260510011326 12 312 0.0 0.0 0.00 0.30 0.30 97 1010.0
20260510010823 12 319 0.0 0.0 0.00 0.30 0.30 97 1009.9
20260510010320 12 316 0.0 0.0 0.00 0.30 0.30 97 1009.8
20260510005817 12 309 0.0 0.0 0.00 0.30 0.30 97 1009.7
20260510005313 12 311 0.0 0.0 0.00 0.30 0.30 97 1009.6
20260510004811 12 311 0.0 0.0 0.00 0.30 0.30 97 1009.7
20260510004308 12 309 0.0 0.0 0.00 0.30 0.30 97 1009.8
20260510003806 12 312 1.6 1.6 0.00 0.30 0.30 97 1009.7
20260510003302 12 312 0.0 0.0 0.00 0.30 0.30 97 1009.6
20260510002801 12 314 0.0 0.0 0.00 0.30 0.30 97 1009.8
20260510002259 12 323 0.0 0.0 0.00 0.30 0.30 96 1009.6
20260510001755 12 312 0.0 0.0 0.00 0.30 0.30 96 1009.7
20260510001254 12 311 0.0 0.0 0.00 0.30 0.30 96 1009.6
20260510000749 12 323 0.0 0.0 0.00 0.30 0.30 96 1009.5
20260510000248 12 321 0.0 1.6 0.00 0.30 0.30 96 1009.4
20260509235744 12 310 0.0 0.0 0.00 0.30 0.30 95 1009.5
20260509235240 12 310 0.0 0.0 0.00 0.30 0.30 95 1009.5
20260509234736 12 339 0.0 0.0 0.00 0.30 0.30 95 1009.4
20260509234233 13 316 0.0 0.0 0.00 0.30 0.30 95 1009.5
20260509233731 13 311 0.0 0.0 0.00 0.30 0.30 95 1009.3
20260509233229 13 324 0.0 0.0 0.00 0.30 0.30 95 1009.1
20260509232724 13 312 0.0 0.0 0.00 0.30 0.30 95 1009.3
20260509232222 13 312 0.0 0.0 0.00 0.30 0.30 96 1009.3
20260509231718 13 319 1.6 1.6 0.00 0.30 0.30 96 1009.1
20260509231215 13 314 0.0 0.0 0.00 0.30 0.30 96 1009.2
20260509230712 13 294 0.0 0.0 0.00 0.30 0.30 96 1009.2
20260509230203 13 308 0.0 0.0 0.00 0.30 0.30 96 1009.4
20260509225659 13 309 0.0 0.0 0.00 0.30 0.30 96 1009.5
20260509225154 13 307 0.0 1.6 0.00 0.30 0.30 96 1009.9
20260509224651 13 312 0.0 0.0 0.18 0.30 0.30 95 1010.0
20260509224148 13 306 0.0 0.0 0.30 0.30 0.30 95 1009.8
20260509223645 13 310 0.0 0.0 0.30 0.28 0.28 95 1009.7
20260509223142 13 340 1.6 3.2 0.48 0.25 0.25 94 1010.1
20260509222639 13 310 1.6 1.6 0.43 0.23 0.23 94 1009.9
20260509222134 13 310 0.0 0.0 0.13 0.18 0.18 93 1010.2
20260509221630 13 307 0.0 0.0 0.00 0.15 0.15 93 1010.4
20260509221126 14 308 0.0 0.0 0.18 0.15 0.15 93 1010.1
20260509220622 14 309 0.0 0.0 0.79 0.15 0.15 92 1010.1
20260509220119 14 310 0.0 0.0 0.79 0.13 0.13 91 1009.7
20260509215615 14 306 0.0 1.6 0.30 0.05 0.05 88 1010.8
20260509215112 14 294 1.6 1.6 0.00 0.00 0.00 88 1010.6
20260509214608 14 312 0.0 0.0 0.00 0.00 0.00 88 1009.8
20260509214105 15 314 0.0 0.0 0.00 0.00 0.00 88 1010.0
20260509213601 14 301 3.2 3.2 0.00 0.00 0.00 87 1009.7
20260509213058 14 331 0.0 0.0 0.00 0.00 0.00 87 1009.7
20260509212555 14 311 0.0 0.0 0.00 0.00 0.00 86 1010.1
20260509212053 14 312 0.0 0.0 0.00 0.00 0.00 85 1010.1
20260509211548 15 303 1.6 1.6 0.00 0.00 0.00 85 1010.0
20260509211045 15 306 1.6 1.6 0.00 0.00 0.00 86 1010.1
20260509210542 14 312 1.6 3.2 0.00 0.00 0.00 86 1010.1
20260509210038 14 305 3.2 4.8 0.00 0.00 0.00 86 1009.8
20260509205538 14 315 1.6 1.6 0.00 0.00 0.00 87 1010.0
20260509205033 14 306 0.0 0.0 0.00 0.00 0.00 87 1010.2
20260509204530 14 296 0.0 0.0 0.00 0.10 0.10 87 1010.2
20260509204026 14 304 3.2 3.2 0.00 0.10 0.10 85 1010.3
20260509203522 14 307 1.6 1.6 0.00 0.10 0.10 87 1010.2
20260509203021 14 296 1.6 1.6 0.00 0.10 0.10 86 1010.0
20260509202515 14 307 4.8 4.8 0.00 0.10 0.10 86 1010.1
20260509202011 14 309 3.2 3.2 0.00 0.10 0.10 87 1010.2
20260509201506 14 299 3.2 3.2 0.00 0.10 0.10 87 1010.1
20260509201004 15 307 0.0 0.0 0.00 0.10 0.10 88 1010.1
20260509200458 15 303 0.0 0.0 0.00 0.10 0.10 89 1010.2
20260509195955 15 293 0.0 0.0 0.00 0.10 0.10 87 1010.1
20260509195450 15 289 0.0 0.0 0.00 0.10 0.10 88 1010.6
20260509194950 15 305 0.0 0.0 0.00 0.10 0.10 89 1010.5
20260509194446 15 272 0.0 1.6 0.00 0.10 0.10 89 1010.2
20260509193943 15 310 0.0 0.0 0.00 0.10 0.10 90 1010.2
20260509193443 15 344 1.6 3.2 0.00 0.10 0.10 89 1010.3
20260509192939 15 321 0.0 0.0 0.00 0.10 0.10 90 1010.3
20260509192436 15 331 0.0 0.0 0.00 0.10 0.10 90 1010.3
20260509191931 15 34 0.0 3.2 0.00 0.10 0.10 90 1010.1
20260509191426 15 354 6.4 6.4 0.00 0.10 0.10 88 1010.2
20260509190922 15 306 0.0 0.0 0.00 0.10 0.10 87 1009.9
20260509190420 15 318 0.0 0.0 0.00 0.10 0.10 86 1010.0
20260509185917 15 310 0.0 0.0 0.00 0.10 0.10 88 1010.1
20260509185415 15 322 0.0 0.0 0.13 0.10 0.10 91 1010.0
20260509184911 15 302 0.0 1.6 0.30 0.10 0.10 90 1010.2
20260509184408 15 221 3.2 4.8 0.18 0.08 0.08 89 1011.1
20260509183905 15 162 4.8 9.7 0.13 0.05 0.05 87 1011.0
20260509183359 15 306 1.6 3.2 0.13 0.05 0.05 87 1010.8
20260509182856 15 284 3.2 3.2 0.18 0.03 0.03 87 1010.7
20260509182353 15 28 4.8 4.8 0.18 0.03 0.03 86 1010.8
20260509181850 16 50 3.2 4.8 0.00 0.00 0.00 81 1010.4
20260509181347 16 208 1.6 3.2 0.00 0.00 0.00 79 1010.2
20260509180845 16 191 3.2 3.2 0.00 0.00 0.00 81 1010.0
20260509180341 16 300 1.6 1.6 0.00 0.00 0.00 83 1009.8
20260509175838 15 329 3.2 3.2 0.00 0.00 0.00 83 1009.8
20260509175334 15 44 0.0 1.6 0.00 0.00 0.00 83 1009.9
20260509174830 16 350 6.4 6.4 0.00 0.00 0.00 84 1010.1
20260509174326 15 70 6.4 9.7 0.00 0.00 0.00 84 1010.3
20260509173822 15 307 0.0 1.6 0.00 0.00 0.00 84 1010.1
20260509173317 15 69 4.8 6.4 0.00 0.00 0.00 83 1010.2
20260509172814 15 48 4.8 4.8 0.00 0.00 0.00 82 1010.0
20260509172311 15 1 3.2 3.2 0.00 0.00 0.00 83 1010.0
20260509171806 15 309 1.6 1.6 0.00 0.00 0.00 84 1010.1
20260509171302 15 50 1.6 3.2 0.00 0.00 0.00 85 1010.1
20260509170759 15 16 3.2 3.2 0.00 0.00 0.00 84 1010.1
20260509170255 15 64 1.6 1.6 0.00 0.00 0.00 82 1010.3
20260509165754 16 54 3.2 3.2 0.00 0.00 0.00 79 1010.2
20260509165249 17 22 4.8 4.8 0.00 0.00 0.00 75 1010.3
20260509164746 18 61 3.2 4.8 0.00 0.00 0.00 69 1010.2
20260509164241 18 324 0.0 1.6 0.00 0.00 0.00 67 1010.1
20260509163739 18 329 1.6 1.6 0.00 0.00 0.00 65 1010.0
20260509163235 18 303 0.0 0.0 0.00 0.00 0.00 64 1010.5
20260509162733 18 325 0.0 1.6 0.00 0.00 0.00 64 1010.3
20260509162227 18 308 0.0 1.6 0.00 0.00 0.00 64 1010.2
20260509161724 17 311 0.0 0.0 0.00 0.00 0.00 67 1010.5
20260509161220 17 305 0.0 1.6 0.00 0.00 0.00 68 1010.7